Location: Cumbre Roja
(10.2766°N, 67.0675°W)
Time: 01:35:26
(UTC+00:00)

AQUARIUS - Pass Details

Date: 18 November 2025
Orbit: 634 x 636 km, 98.0° (Epoch: 08 December)

Event Time Altitude Azimuth Distance (km) Brightness Sun altitude
Rises 22:24:16 0° 160° (SSE) 2,925 7.5 -5.9°
Reaches altitude 10° 22:26:30 10° 156° (SSE) 2,016 6.7 -6.4°
Maximum altitude 22:30:48 57° 78° (ENE) 745 4.2 -7.4°
Drops below altitude 10° 22:35:07 10° 359° (N) 2,013 6.5 -8.4°
Sets 22:37:20 0° 355° (N) 2,921 7.4 -8.9°
